Location: Blanot
(47.1713°N, 4.2340°E)
Time: 20:52:51
(UTC+00:00)

COSMOS 2406 - Pass Details

Date: 14 July 2020
Orbit: 844 x 862 km, 71.0° (Epoch: 14 August)

Event Time Altitude Azimuth Distance (km) Brightness Sun altitude
Exits shadow 00:49:36 28° 154° (SSE) 1,571 4.2 -19.9°
Maximum altitude 00:51:57 40° 107° (ESE) 1,246 4.0 -19.7°
Drops below altitude 10° 00:57:17 10° 40° (NE) 2,509 6.7 -19.5°
Sets 00:59:52 0° 33° (NNE) 3,448 7.8 -19.4°
